This is the latest recevied weather packets stored in our database for station/object SP8NFE-1. If no packets are shown the sender has not sent any weather packets the latest 10 day(s).
| Time | Temp. | Humidity | Pressure | Rain* | Wind** | Luminosity | Snow |
|---|---|---|---|---|---|---|---|
| 1777831517 | 13.33° C | 58% | 0 hPa | 0 mm | - | - | - |
| 1777831217 | 13.89° C | 59% | 0 hPa | 0 mm | - | - | - |
| 1777830917 | 14.44° C | 57% | 0 hPa | 0 mm | - | - | - |
| 1777830617 | 15° C | 55% | 0 hPa | 0 mm | - | - | - |
| 1777830317 | 15.56° C | 51% | 0 hPa | 0 mm | - | - | - |
| 1777830018 | 16.11° C | 50% | 0 hPa | 0 mm | - | - | - |
| 1777829717 | 16.67° C | 46% | 0 hPa | 0 mm | - | - | - |
| 1777829417 | 17.22° C | 44% | 0 hPa | 0 mm | - | - | - |
| 1777829118 | 17.78° C | 43% | 0 hPa | 0 mm | - | - | - |
| 1777828817 | 18.89° C | 40% | 0 hPa | 0 mm | - | - | - |
| 1777828518 | 20° C | 38% | 0 hPa | 0 mm | - | - | - |
| 1777828218 | 20° C | 38% | 0 hPa | 0 mm | - | - | - |
| 1777827918 | 20.56° C | 36% | 0 hPa | 0 mm | - | - | - |
| 1777827618 | 20.56° C | 33% | 0 hPa | 0 mm | - | - | - |
| 1777827318 | 20.56° C | 31% | 0 hPa | 0 mm | - | - | - |
| 1777827018 | 21.11° C | 29% | 0 hPa | 0 mm | - | - | - |
| 1777826718 | 21.11° C | 29% | 0 hPa | 0 mm | - | - | - |
| 1777826418 | 21.67° C | 28% | 0 hPa | 0 mm | - | - | - |
| 1777826118 | 21.67° C | 28% | 0 hPa | 0 mm | - | - | - |
| 1777825818 | 21.67° C | 27% | 0 hPa | 0 mm | - | - | - |
| 1777825518 | 21.67° C | 28% | 0 hPa | 0 mm | - | - | - |
| 1777825218 | 21.67° C | 27% | 0 hPa | 0 mm | - | - | - |
| 1777824918 | 22.22° C | 27% | 0 hPa | 0 mm | - | - | - |
| 1777824618 | 21.67° C | 27% | 0 hPa | 0 mm | - | - | - |
| 1777824318 | 21.67° C | 27% | 0 hPa | 0 mm | - | - | - |
* Rain latest hour (hover to see other rain measurements)
** Current wind speed in m/s (hover to see current wind gust speed)